Alexandra Park, Ontario

9:26 PM EDT on July 25, 2017 (GMT -0400)
Alexandra Park

Weather History for 71508 - July, 2013

Change the Weather History Date:

Thursday, July 18, 2013

  Actual Average Record
Temperature  
Mean Temperature 85 °F -  
Max Temperature 93 °F - - ()
Min Temperature 77 °F - - ()
Cooling Degree Days 20    
Growing Degree Days 35 (Base 50)    
Moisture  
Dew Point 70 °F    
Average Humidity 61    
Maximum Humidity 81    
Minimum Humidity 38    
Precipitation  
Precipitation 0.00 in - - ()
Sea Level Pressure  
Sea Level Pressure 30.02 in    
Wind  
Wind Speed - ()    
Max Wind Speed -    
Max Gust Speed -    
T = Trace of Precipitation, MM = Missing Value Source: Averaged Metar Reports

Daily Weather History Graph

Daily Weather History Graph

Search for Another Location

Airport or City:

Trip Planner

Search our weather history database for the weather conditions in past years. The results will help you decide how hot, cold, wet, or windy it might be!

Date:

Astronomy

Jul. 18, 2013 Rise Set
Actual Time 5:52 AM EDT 8:54 PM EDT
Civil Twilight 5:18 AM EDT 9:28 PM EDT
Nautical Twilight 4:34 AM EDT 10:12 PM EDT
Astronomical Twilight 3:42 AM EDT 11:04 PM EDT
Moon 4:48 PM EDT (7/18) 1:43 AM EDT (7/18)
Length of Visible Light 16h 10m
Length of Day
15h 01m
Waxing Gibbous, 77% of the Moon is Illuminated
Jul 18
Waxing Gibbous
Jul 22
Full
Jul 29
Last Quarter
Aug 6
New
Aug 14
First Quarter

Hourly Weather History & Observations

Time (EDT) Temp. Heat Index Dew Point Humidity Pressure Visibility Wind Dir Wind Speed Gust Speed Precip Events Conditions
12:00 AM 82.2 °F 86.0 °F 69.6 °F 66% 30.09 in - North - - N/A   Unknown
1:00 AM 82.4 °F 87.2 °F 71.6 °F 70% 30.09 in - North - - N/A   Unknown
2:00 AM 81 °F - 72 °F 67% 30.08 in - Calm Calm - -  
2:00 AM 81.1 °F 85.6 °F 72.0 °F 74% 30.08 in - North - - N/A   Unknown
3:00 AM 79.9 °F - 71.8 °F 76% 30.07 in - North - - N/A   Unknown
4:00 AM 80.2 °F 84.2 °F 72.1 °F 76% 30.07 in - North - - N/A   Unknown
5:00 AM 78.3 °F - 71.6 °F 80% 30.07 in - North - - N/A   Unknown
6:00 AM 78.1 °F - 71.8 °F 81% 30.06 in - North - - N/A   Unknown
7:00 AM 79.0 °F - 71.4 °F 78% 30.07 in - North - - N/A   Unknown
8:00 AM 82 °F - 73 °F 67% 30.07 in - Calm Calm - -  
8:00 AM 81.7 °F 86.7 °F 72.7 °F 74% 30.07 in - North - - N/A   Unknown
9:00 AM 84.4 °F 89.0 °F 70.5 °F 63% 30.07 in - North - - N/A   Unknown
10:00 AM 87.4 °F 91.9 °F 69.3 °F 55% 30.06 in - North - - N/A   Unknown
11:00 AM 89.1 °F 93.3 °F 68.5 °F 51% 30.05 in - North - - N/A   Unknown
12:00 PM 89.8 °F 94.2 °F 68.9 °F 50% 30.05 in - North - - N/A   Unknown
1:00 PM 87.6 °F 92.3 °F 69.6 °F 55% 30.03 in - North - - N/A   Unknown
2:00 PM 87 °F - 69 °F 46% 30.02 in - Calm Calm - -  
2:00 PM 86.5 °F 90.7 °F 69.3 °F 56% 30.02 in - North - - N/A   Unknown
3:00 PM 85.8 °F 90.1 °F 69.3 °F 58% 29.99 in - North - - N/A   Unknown
4:00 PM 89.2 °F 94.9 °F 70.7 °F 54% 29.98 in - North - - N/A   Unknown
5:00 PM 91.8 °F 98.6 °F 71.4 °F 51% 29.96 in - North - - N/A   Unknown
6:00 PM 92.5 °F 95.9 °F 66.9 °F 43% 29.94 in - North - - N/A   Unknown
7:00 PM 90.1 °F 93.5 °F 67.5 °F 47% 29.93 in - North - - N/A   Unknown
8:00 PM 89 °F - 67 °F 38% 29.94 in - Calm Calm - -  
8:00 PM 89.1 °F 92.1 °F 66.9 °F 48% 29.94 in - North - - N/A   Unknown
9:00 PM 87.3 °F 90.5 °F 67.5 °F 52% 29.92 in - North - - N/A   Unknown
10:00 PM 86.5 °F 90.3 °F 68.5 °F 55% 29.92 in - North - - N/A   Unknown
11:00 PM 84.9 °F 90.4 °F 71.6 °F 64% 29.92 in - North - - N/A   Unknown